Date String (YYYY-MM-DD hh:mm:ss) UTC,Instrument flags,absolute air pressure of the measurement (hPa),sample flow rate (lpm),inlet stack bypass flow (lpm),air temperature of the measurement (°C),ambient temperature measured by the external sensor (°C),aerosol sample conditioner tube jacket temperature (°C),OPC LED temperature (°C),internal box temperature (°C),relative humidity of the measurement (%),span deviation,mass concentration of particles derived from Lorenz-Mie calculation of OPC scattering (μg/m³),mass concentration of particles derived from Lorenz-Mie calculation of OPC scattering (μg/m³),mass concentration of particles derived from Lorenz-Mie calculation of OPC scattering (μg/m³)
DateTimeUTC,F1_M11,P_M11,Q1_M11,Q2_M11,T1_M11,T2_M11,T3_M11,T4_M11,T5_M11,U1_M11,ZSPAN_M11,X2_M11,X0_M11,X1_M11
2024-05-22 09:00:00,SystemResetWarning,0829.2,4.99,000.00,024.9,024.1,000.0,033.2,026.6,012.0,0000.0,0002.05,0005.67,0001.65
2024-05-22 09:01:00,SystemResetWarning,0829.3,5.00,000.00,024.9,024.1,000.0,033.2,026.6,012.1,0000.0,0002.09,0005.75,0001.65
2024-05-22 09:02:00,SystemResetWarning,0829.2,5.00,000.00,024.9,024.1,000.0,033.2,026.6,011.9,0000.0,0002.15,0006.17,0001.67
2024-05-22 09:03:00,SystemResetWarning,0829.2,5.00,000.00,024.9,024.1,000.0,033.2,026.6,012.0,0000.0,0002.19,0005.67,0001.69
2024-05-22 09:04:00,SystemResetWarning,0829.2,5.00,000.00,024.9,024.1,000.0,033.2,026.6,011.8,0000.0,0002.21,0006.49,0001.70
2024-05-22 09:05:00,SystemResetWarning,0829.2,5.00,000.00,024.9,024.1,000.0,033.2,026.6,011.8,0000.0,0002.20,0006.95,0001.70
2024-05-22 09:06:00,SystemResetWarning,0829.2,5.00,000.00,024.9,024.1,000.0,033.2,026.6,011.6,0000.0,0002.17,0006.80,0001.71
2024-05-22 09:07:00,SystemResetWarning,0829.2,5.00,000.00,024.8,024.1,000.0,033.1,026.6,011.7,0000.0,0002.17,0006.73,0001.73
2024-05-22 09:08:00,SystemResetWarning,0829.1,5.00,000.00,024.8,024.0,000.0,033.1,026.6,011.7,0000.0,0002.12,0006.57,0001.72
2024-05-22 09:09:00,SystemResetWarning,0829.1,5.00,000.00,024.8,024.1,000.0,033.1,026.6,011.7,0000.0,0002.14,0006.58,0001.73
2024-05-22 09:10:00,SystemResetWarning,0829.1,5.01,000.00,024.8,024.0,000.0,033.1,026.6,011.7,0000.0,0002.18,0005.88,0001.72
2024-05-22 09:11:00,SystemResetWarning,0829.1,5.00,000.00,024.8,024.0,000.0,033.1,026.6,011.6,0000.0,0002.17,0005.16,0001.70
2024-05-22 09:12:00,SystemResetWarning,0829.1,5.00,000.00,024.8,024.0,000.0,033.1,026.6,011.4,0000.0,0002.14,0005.18,0001.69
2024-05-22 09:13:00,SystemResetWarning,0829.0,4.99,000.00,024.8,024.0,000.0,033.1,026.5,011.3,0000.0,0002.12,0004.89,0001.68
2024-05-22 09:14:00,SystemResetWarning,0829.0,5.00,000.00,024.8,024.0,000.0,033.1,026.5,011.5,0000.0,0002.09,0004.44,0001.66
2024-05-22 09:15:00,SystemResetWarning,0829.0,5.01,000.00,024.8,024.0,000.0,033.1,026.5,011.6,0000.0,0002.05,0003.41,0001.65
2024-05-22 09:16:00,SystemResetWarning,0829.0,5.00,000.00,024.8,024.0,000.0,033.1,026.5,011.5,0000.0,0002.03,0002.70,0001.65
2024-05-22 09:17:00,SystemResetWarning,0829.0,5.00,000.00,024.7,023.9,000.0,033.1,026.5,011.3,0000.0,0002.04,0003.47,0001.64
2024-05-22 09:18:00,SystemResetWarning,0829.0,4.99,000.00,024.7,023.9,000.0,033.1,026.5,011.2,0000.0,0002.01,0003.71,0001.63
2024-05-22 09:19:00,SystemResetWarning,0828.9,5.00,000.00,024.7,023.9,000.0,033.1,026.5,011.2,0000.0,0002.03,0003.74,0001.64
2024-05-22 09:20:00,SystemResetWarning,0829.0,5.00,000.00,024.7,023.9,000.0,033.0,026.4,011.2,0000.0,0001.99,0003.66,0001.63
2024-05-22 09:21:00,SystemResetWarning,0829.0,5.01,000.00,024.7,023.9,000.0,033.0,026.4,011.2,0000.0,0001.97,0003.62,0001.63
2024-05-22 09:22:00,SystemResetWarning,0829.0,5.00,000.00,024.7,023.8,000.0,033.0,026.4,011.1,0000.0,0001.94,0003.59,0001.64
2024-05-22 09:23:00,SystemResetWarning,0829.0,5.00,000.00,024.6,023.8,000.0,033.0,026.3,011.2,0000.0,0001.98,0005.01,0001.65
2024-05-22 09:24:00,SystemResetWarning,0829.0,5.00,000.00,024.6,023.8,000.0,033.0,026.3,011.3,0000.0,0001.98,0005.24,0001.66
2024-05-22 09:25:00,SystemResetWarning,0829.0,5.00,000.00,024.6,023.7,000.0,033.0,026.3,011.4,0000.0,0002.02,0005.31,0001.67
2024-05-22 09:26:00,SystemResetWarning,0828.9,5.00,000.00,024.6,023.7,000.0,033.0,026.3,011.4,0000.0,0002.09,0005.49,0001.68
2024-05-22 09:27:00,SystemResetWarning,0828.8,5.00,000.00,024.6,023.7,000.0,032.9,026.3,011.2,0000.0,0002.12,0005.61,0001.66
2024-05-22 09:28:00,SystemResetWarning,0828.8,5.00,000.00,024.5,023.6,000.0,032.9,026.3,011.1,0000.0,0002.12,0005.26,0001.66
2024-05-22 09:29:00,SystemResetWarning,0828.8,5.00,000.00,024.5,023.6,000.0,032.9,026.2,010.9,0000.0,0002.11,0004.69,0001.67
2024-05-22 09:30:00,SystemResetWarning,0828.8,4.99,000.00,024.5,023.5,000.0,032.9,026.2,010.5,0000.0,0002.11,0004.68,0001.66
2024-05-22 09:31:00,SystemResetWarning,0828.7,5.00,000.00,024.4,023.5,000.0,032.9,026.2,010.9,0000.0,0002.15,0004.76,0001.68
2024-05-22 09:32:00,SystemResetWarning,0828.9,5.01,000.00,024.4,023.5,000.0,032.9,026.1,010.7,0000.0,0002.13,0004.89,0001.68
2024-05-22 09:33:00,SystemResetWarning,0828.9,5.01,000.00,024.4,023.4,000.0,032.9,026.1,011.1,0000.0,0002.11,0005.96,0001.69
2024-05-22 09:34:00,SystemResetWarning,0828.9,5.01,000.00,024.4,023.4,000.0,032.8,026.1,011.3,0000.0,0002.06,0004.71,0001.69
2024-05-22 09:35:00,SystemResetWarning,0828.9,4.99,000.00,024.3,023.4,000.0,032.8,026.0,011.3,0000.0,0002.02,0004.04,0001.68
2024-05-22 09:36:00,SystemResetWarning,0828.9,4.99,000.00,024.3,023.3,000.0,032.8,026.0,011.3,0000.0,0001.96,0003.93,0001.67
2024-05-22 09:37:00,SystemResetWarning,0828.8,4.99,000.00,024.3,023.3,000.0,032.8,026.0,011.2,0000.0,0001.94,0003.94,0001.66
2024-05-22 09:38:00,SystemResetWarning,0828.8,4.99,000.00,024.2,023.3,000.0,032.8,026.0,010.7,0000.0,0001.92,0004.01,0001.67
2024-05-22 09:39:00,SystemResetWarning,0828.7,5.00,000.00,024.2,023.3,000.0,032.7,026.0,011.0,0000.0,0001.92,0004.19,0001.69
2024-05-22 09:40:00,SystemResetWarning,0828.8,5.01,000.00,024.2,023.3,000.0,032.7,025.9,010.9,0000.0,0001.96,0004.25,0001.70
2024-05-22 09:41:00,SystemResetWarning,0828.8,5.00,000.00,024.2,023.3,000.0,032.7,025.9,011.0,0000.0,0001.99,0004.40,0001.71
2024-05-22 09:42:00,SystemResetWarning,0828.8,5.00,000.00,024.2,023.2,000.0,032.7,025.9,011.1,0000.0,0001.98,0004.56,0001.70
2024-05-22 09:43:00,SystemResetWarning,0828.8,5.00,000.00,024.2,023.2,000.0,032.6,025.9,011.1,0000.0,0002.00,0004.50,0001.69
2024-05-22 09:44:00,SystemResetWarning,0828.9,4.99,000.00,024.1,023.2,000.0,032.6,025.9,011.2,0000.0,0002.02,0003.56,0001.69
2024-05-22 09:45:00,SystemResetWarning,0829.0,5.01,000.00,024.1,023.2,000.0,032.6,025.8,011.1,0000.0,0002.04,0003.65,0001.69
2024-05-22 09:46:00,SystemResetWarning,0829.0,5.00,000.00,024.1,023.2,000.0,032.6,025.8,011.1,0000.0,0002.07,0003.77,0001.69
2024-05-22 09:47:00,SystemResetWarning,0828.9,5.01,000.00,024.1,023.1,000.0,032.5,025.7,011.0,0000.0,0002.10,0003.86,0001.70
2024-05-22 09:48:00,SystemResetWarning,0828.9,5.00,000.00,024.0,023.1,000.0,032.5,025.7,011.0,0000.0,0002.11,0003.76,0001.70
2024-05-22 09:49:00,SystemResetWarning,0829.0,5.01,000.00,024.0,023.1,000.0,032.5,025.7,011.0,0000.0,0002.08,0003.52,0001.69
2024-05-22 09:50:00,SystemResetWarning,0828.9,5.00,000.00,024.0,023.1,000.0,032.5,025.7,011.0,0000.0,0002.05,0003.18,0001.68
2024-05-22 09:51:00,SystemResetWarning,0828.9,5.00,000.00,024.0,023.0,000.0,032.5,025.6,011.1,0000.0,0002.03,0003.18,0001.67
2024-05-22 09:52:00,SystemResetWarning,0829.0,5.00,000.00,024.0,023.0,000.0,032.4,025.6,011.2,0000.0,0002.01,0003.07,0001.64
2024-05-22 09:53:00,SystemResetWarning,0829.0,5.00,000.00,023.9,023.0,000.0,032.4,025.6,011.3,0000.0,0002.01,0002.90,0001.65
2024-05-22 09:54:00,SystemResetWarning,0828.9,5.00,000.00,023.9,023.0,000.0,032.4,025.6,011.2,0000.0,0001.99,0002.97,0001.65
2024-05-22 09:55:00,SystemResetWarning,0829.0,4.99,000.00,023.9,023.0,000.0,032.4,025.5,011.2,0000.0,0001.95,0004.29,0001.63
2024-05-22 09:56:00,SystemResetWarning,0829.0,4.99,000.00,023.9,023.0,000.0,032.4,025.5,011.7,0000.0,0001.95,0004.20,0001.64
2024-05-22 09:57:00,SystemResetWarning,0828.9,5.00,000.00,023.9,022.9,000.0,032.3,025.5,011.8,0000.0,0001.92,0004.83,0001.63
2024-05-22 09:58:00,SystemResetWarning,0828.9,5.01,000.00,023.9,022.9,000.0,032.3,025.5,011.9,0000.0,0001.88,0004.99,0001.63
2024-05-22 09:59:00,SystemResetWarning,0828.9,5.00,000.00,023.8,022.9,000.0,032.3,025.5,011.8,0000.0,0001.85,0004.95,0001.62
